Temp
70 74 79 80 80 80 79 79 79 79 79 79 79 78 78 78 79 79 79 79 79 80 80 80 80 80 80 80 80 80 80 80 81 81 81 81 81 81 81 81 81 80 80
71 74 79 79 79 79 79 79 78 79 78 78 78 78 78 78 78 78 79 79 79 79 80 80 80 80 80 80 79 79 80 80 80 81 81 81 81 81 81 81 81 79 80
71 73 77 79 79 79 79 79 79 78 78 78 78 78 78 78 78 78 78 78 79 79 79 79 79 79 79 79 79 79 79 79 79 80 81 76 77 81 81 81 80 79 79
71 71 73 79 79 79 79 78 78 78 78 78 78 78 77 77 77 77 78 78 78 79 79 78 78 78 78 78 78 78 78 78 79 80 76 78 80 81 80 80 80 79 79
70 72 75 79 79 79 79 78 78 78 78 78 78 77 77 77 77 77 77 77 77 77 77 78 77 77 77 77 77 77 77 78 79 78 72 72 73 79 80 79 80 79 79
72 74 77 78 78 78 78 78 77 77 77 77 77 77 77 77 76 76 76 76 76 76 76 76 76 76 76 76 77 77 77 77 79 70 72 73 74 78 79 79 80 79 79
70 71 73 78 78 78 78 77 77 77 76 76 76 76 76 76 76 76 75 75 76 76 76 76 75 75 75 75 75 76 76 77 74 68 70 71 72 78 79 79 80 79 79
71 70 71 78 78 78 77 77 76 76 75 75 75 75 75 75 76 75 75 74 75 75 75 75 75 75 75 75 75 75 76 76 75 68 70 71 75 77 80 79 78 79 79
72 70 69 70 74 78 77 77 76 76 75 75 74 74 75 75 76 75 75 75 75 75 75 75 75 75 75 75 75 75 76 76 72 68 72 72 76 78 80 79 79 78 79
69 69 67 68 68 70 69 77 76 76 76 75 75 75 76 75 76 76 75 74 75 76 75 75 75 75 75 75 75 75 76 76 68 65 69 71 77 79 80 79 79 78 78
70 67 66 66 66 69 69 70 75 77 76 75 74 74 69 63 64 69 73 76 76 76 76 76 76 76 75 75 75 75 77 68 64 68 68 74 77 80 80 79 79 78 77
65 66 71 66 66 67 74 66 64 68 65 65 65 64 62 62 65 69 70 75 75 75 74 74 74 74 73 64 63 70 64 64 65 67 69 76 78 79 81 79 79 78 77
68 68 70 68 68 67 64 62 62 62 62 63 64 62 61 62 61 60 60 61 60 68 63 66 64 64 63 63 63 62 63 64 64 66 71 77 77 79 80 79 78 77 77
68 67 66 68 66 65 62 61 61 61 61 61 62 62 60 58 59 59 58 59 59 59 60 60 60 61 62 63 63 63 64 64 63 63 66 76 77 78 79 78 78 78 77
66 66 68 65 64 63 62 61 62 61 62 60 61 61 60 58 58 58 58 58 58 58 58 59 59 60 59 61 63 63 64 64 65 63 62 76 77 77 78 79 78 77 77
67 67 67 65 64 64 62 61 61 61 61 61 60 61 61 59 59 58 57 57 58 58 58 57 58 57 58 58 61 62 62 62 63 64 64 63 75 76 77 78 79 78 78
65 67 64 64 64 63 63 63 62 61 64 61 61 61 61 60 59 59 58 56 58 59 58 58 58 58 57 59 57 59 60 62 62 63 63 62 64 74 76 77 77 78 77
61 61 63 70 67 63 62 62 62 62 61 62 60 60 63 63 64 59 57 57 58 58 56 56 57 56 56 55 54 56 57 58 61 62 62 62 62 65 70 76 76 77 77
61 61 61 64 64 63 62 64 64 63 61 59 59 59 63 67 64 58 57 57 57 56 56 55 59 55 54 54 57 58 58 56 58 64 61 62 62 63 62 70 75 76 76
62 61 60 63 62 63 61 62 64 60 63 59 59 60 63 63 64 60 58 59 56 56 55 54 53 54 54 54 59 59 56 57 56 56 58 62 59 63 62 63 62 68 75
63 60 60 62 61 60 59 58 58 58 59 60 59 62 61 61 63 59 57 57 56 59 55 54 54 53 53 54 52 52 53 55 54 56 56 57 59 61 61 60 61 61 67
65 61 60 60 61 60 59 58 58 57 58 59 59 60 61 62 62 60 58 57 56 54 55 54 53 52 52 53 51 48 47 51 53 56 55 57 57 58 60 61 60 61 61
61 61 61 61 61 59 60 58 59 58 57 57 57 57 60 62 61 60 59 57 56 55 53 53 53 52 51 52 53 50 46 43 47 51 54 54 55 54 56 58 60 60 60
62 62 61 61 59 59 59 58 55 54 53 55 55 57 58 61 61 62 60 58 56 54 53 53 55 53 52 50 51 53 51 50 47 45 49 52 52 54 54 54 57 58 59
63 61 60 59 58 58 58 57 55 54 55 54 54 55 56 57 58 60 59 57 55 54 54 54 54 53 52 51 50 50 50 49 49 47 47 47 51 52 54 55 54 55 58
62 61 59 58 57 57 57 56 54 55 55 53 54 54 54 57 55 57 58 56 55 54 54 54 54 54 53 52 51 51 50 49 48 47 49 47 51 52 53 54 54 53 56
MSLP
1020.43 1020.00 1019.74 1019.67 1019.60 1019.59 1019.56 1019.53 1019.52 1019.57 1019.61 1019.52 1019.52 1019.55 1019.45 1019.37 1019.38 1019.40 1019.24 1019.06 1018.85 1018.74 1018.67 1018.68 1018.67 1018.63 1018.59 1018.60 1018.60 1018.60 1018.43 1018.24 1018.08 1018.15 1018.22 1018.26 1018.30 1018.28 1018.15 1018.15 1018.37 1018.42 1018.39
1020.05 1019.88 1019.64 1019.66 1019.79 1019.75 1019.82 1019.65 1019.67 1019.66 1019.66 1019.86 1019.87 1019.91 1019.79 1019.75 1019.70 1019.64 1019.67 1019.53 1019.26 1019.05 1018.88 1018.83 1018.82 1018.76 1018.72 1018.82 1018.77 1018.68 1018.66 1018.55 1018.39 1018.29 1018.36 1018.47 1018.46 1018.39 1018.28 1018.33 1018.51 1018.64 1018.72
1019.95 1019.88 1019.83 1019.81 1019.93 1019.84 1020.01 1019.93 1019.80 1019.82 1019.78 1019.91 1020.16 1020.13 1020.07 1019.99 1019.86 1019.88 1019.94 1019.83 1019.60 1019.52 1019.24 1019.06 1019.03 1018.96 1018.96 1018.96 1018.96 1018.95 1018.79 1018.69 1018.48 1018.48 1018.36 1018.55 1018.58 1018.48 1018.41 1018.52 1018.55 1018.66 1018.87
1019.99 1020.09 1020.07 1020.04 1020.00 1020.04 1020.21 1020.11 1020.10 1020.14 1020.24 1020.23 1020.30 1020.45 1020.35 1020.31 1020.13 1020.13 1020.12 1019.96 1019.88 1019.77 1019.62 1019.41 1019.36 1019.26 1019.13 1019.04 1019.02 1019.03 1018.92 1018.81 1018.60 1018.49 1018.53 1018.48 1018.43 1018.50 1018.49 1018.50 1018.77 1019.00 1019.08
1020.14 1020.17 1020.08 1020.12 1020.12 1020.18 1020.31 1020.31 1020.28 1020.34 1020.43 1020.55 1020.56 1020.67 1020.50 1020.47 1020.52 1020.46 1020.29 1020.20 1020.22 1020.01 1019.89 1019.68 1019.60 1019.42 1019.29 1019.16 1019.06 1018.92 1018.98 1019.09 1018.87 1018.62 1018.75 1018.65 1018.60 1018.39 1018.51 1018.45 1018.60 1018.78 1018.93
1020.28 1020.25 1020.24 1020.26 1020.37 1020.47 1020.58 1020.60 1020.64 1020.75 1020.88 1020.90 1020.88 1020.80 1020.77 1020.74 1020.73 1020.65 1020.48 1020.48 1020.45 1020.42 1020.29 1020.16 1019.78 1019.59 1019.44 1019.27 1019.05 1018.83 1018.89 1018.87 1018.84 1018.95 1018.71 1018.49 1018.39 1018.30 1018.33 1018.44 1018.58 1018.67 1018.86
1020.48 1020.47 1020.39 1020.39 1020.40 1020.53 1020.71 1020.89 1020.91 1020.96 1021.00 1021.01 1021.09 1021.08 1020.98 1020.93 1020.93 1020.98 1020.66 1020.64 1020.55 1020.47 1020.39 1020.33 1020.07 1019.80 1019.62 1019.42 1019.13 1018.91 1018.75 1018.76 1018.78 1018.96 1018.84 1018.67 1018.27 1018.14 1018.23 1018.25 1018.37 1018.65 1018.77
1020.46 1020.69 1020.60 1020.56 1020.59 1020.63 1020.82 1020.94 1021.09 1021.07 1021.09 1021.10 1021.06 1021.16 1021.15 1021.17 1021.20 1021.08 1020.99 1020.76 1020.55 1020.43 1020.30 1020.29 1020.02 1019.98 1019.73 1019.51 1019.18 1018.93 1018.78 1018.69 1018.60 1018.75 1018.69 1018.49 1018.35 1018.12 1017.96 1018.00 1018.14 1018.16 1018.52
1020.72 1021.01 1021.00 1020.93 1020.88 1020.91 1020.96 1020.97 1021.03 1021.09 1021.12 1021.15 1021.22 1021.24 1021.16 1021.22 1021.26 1021.18 1021.06 1020.84 1020.59 1020.35 1020.27 1020.24 1020.02 1019.92 1019.64 1019.54 1019.22 1018.99 1018.75 1018.61 1018.47 1018.58 1018.49 1018.19 1017.91 1017.58 1017.68 1018.02 1018.06 1018.20 1018.40
1021.12 1021.17 1021.23 1021.16 1021.09 1021.26 1021.22 1021.00 1021.09 1021.08 1021.04 1021.06 1021.08 1021.22 1021.11 1021.01 1020.95 1020.79 1020.83 1020.78 1020.65 1020.31 1020.21 1020.08 1019.88 1019.79 1019.58 1019.40 1019.27 1019.02 1018.72 1018.43 1018.37 1018.59 1018.56 1018.15 1017.66 1017.48 1017.58 1017.73 1017.96 1018.13 1018.22
1021.38 1021.34 1021.43 1021.41 1021.26 1021.18 1021.31 1021.31 1021.19 1021.18 1021.10 1021.11 1021.08 1021.10 1021.12 1021.33 1021.26 1020.94 1020.97 1020.58 1020.46 1020.31 1020.00 1019.74 1019.56 1019.47 1019.36 1019.26 1019.15 1018.81 1018.53 1018.41 1018.29 1018.29 1018.31 1017.85 1017.40 1017.23 1017.31 1017.66 1018.00 1018.15 1018.36
1021.83 1021.97 1021.74 1021.72 1021.46 1021.37 1021.53 1021.54 1021.24 1021.36 1021.43 1021.42 1021.18 1021.26 1021.22 1021.15 1021.02 1021.05 1020.94 1020.61 1020.48 1020.30 1020.08 1019.92 1019.57 1019.36 1019.18 1019.39 1019.31 1018.92 1018.79 1018.38 1018.12 1018.04 1017.78 1017.43 1016.79 1016.45 1016.78 1017.24 1017.84 1018.14 1018.32
1021.57 1021.45 1021.41 1021.54 1021.55 1021.53 1021.73 1021.76 1021.56 1021.54 1021.49 1021.36 1021.36 1021.15 1021.13 1021.20 1021.11 1021.28 1021.21 1020.94 1020.81 1020.51 1020.39 1019.93 1019.76 1019.78 1019.62 1019.41 1019.12 1018.95 1018.75 1018.47 1018.13 1018.00 1017.52 1017.29 1016.74 1016.50 1016.70 1017.22 1017.65 1018.11 1018.29
1021.49 1021.66 1021.60 1021.56 1021.63 1021.72 1021.86 1021.95 1021.85 1021.71 1021.40 1021.39 1021.20 1021.12 1021.19 1021.37 1021.35 1021.32 1021.28 1021.09 1020.97 1020.62 1020.43 1020.10 1019.97 1019.78 1019.56 1019.37 1019.24 1018.95 1018.56 1018.32 1018.19 1017.91 1017.56 1017.35 1016.98 1016.78 1016.86 1017.23 1017.34 1017.58 1017.94
1021.78 1021.76 1021.82 1021.75 1021.83 1021.86 1021.86 1021.84 1021.64 1021.48 1021.30 1021.32 1021.16 1021.12 1021.08 1021.29 1021.21 1021.21 1021.18 1021.00 1020.90 1020.73 1020.58 1020.20 1019.99 1019.84 1019.68 1019.46 1019.07 1018.83 1018.46 1018.21 1017.86 1017.67 1017.71 1017.36 1017.11 1016.95 1016.99 1017.18 1017.13 1017.45 1017.69
1021.64 1021.72 1021.78 1021.87 1021.77 1021.58 1021.62 1021.66 1021.67 1021.37 1021.22 1021.05 1021.02 1020.88 1020.95 1020.84 1020.85 1020.96 1020.98 1020.87 1020.64 1020.47 1020.43 1020.24 1020.10 1019.92 1019.85 1019.65 1019.20 1018.77 1018.45 1018.07 1017.87 1017.67 1017.36 1017.34 1016.99 1016.81 1016.86 1016.93 1016.99 1017.25 1017.47
1021.47 1021.59 1021.56 1021.53 1021.73 1021.52 1021.49 1021.48 1021.51 1021.42 1021.00 1020.89 1020.80 1020.54 1020.81 1020.65 1020.67 1020.62 1020.66 1020.67 1020.51 1020.30 1020.18 1019.94 1019.78 1019.68 1020.03 1019.48 1019.24 1018.74 1018.43 1017.99 1017.72 1017.42 1017.17 1017.14 1016.98 1016.82 1016.66 1016.62 1016.82 1017.02 1017.02
1021.43 1021.42 1021.36 1021.23 1021.41 1021.51 1021.28 1021.23 1021.09 1021.04 1021.00 1020.66 1020.51 1020.42 1020.40 1020.25 1020.09 1020.35 1020.55 1020.62 1020.34 1020.26 1020.15 1020.04 1019.83 1019.82 1019.68 1019.58 1019.35 1018.78 1018.48 1018.16 1017.69 1017.32 1016.97 1016.73 1016.85 1016.76 1016.53 1016.23 1016.30 1016.55 1016.96
1021.25 1021.35 1021.31 1021.19 1021.39 1021.50 1021.24 1021.17 1020.90 1020.33 1020.38 1020.32 1020.16 1020.31 1019.97 1019.63 1019.94 1020.29 1020.28 1020.23 1020.12 1020.19 1020.16 1020.19 1019.91 1020.01 1019.78 1019.48 1019.21 1018.65 1018.31 1018.05 1017.64 1017.22 1017.05 1016.57 1016.33 1016.40 1016.36 1016.13 1016.01 1016.15 1016.49
1021.01 1021.16 1021.18 1021.23 1021.58 1021.38 1021.37 1020.85 1020.64 1020.18 1020.35 1020.44 1019.87 1019.90 1019.72 1019.73 1019.61 1019.91 1020.03 1019.86 1019.83 1019.99 1020.10 1020.11 1020.12 1019.82 1019.70 1019.40 1019.12 1018.77 1018.32 1017.78 1017.37 1017.39 1017.03 1016.44 1016.15 1015.96 1015.87 1015.92 1015.86 1015.76 1015.78
1020.60 1020.86 1020.97 1021.09 1021.07 1021.24 1021.41 1021.06 1020.76 1020.44 1020.34 1020.20 1019.71 1019.61 1019.51 1019.37 1019.25 1019.49 1019.61 1019.68 1019.63 1019.73 1019.65 1019.72 1019.79 1019.72 1019.62 1019.29 1019.28 1018.75 1018.26 1017.47 1017.46 1017.18 1016.86 1016.39 1016.09 1015.81 1015.53 1015.74 1015.66 1015.56 1015.39
1020.04 1020.25 1020.76 1020.76 1020.70 1020.79 1021.02 1020.65 1020.33 1020.24 1020.15 1019.82 1019.70 1019.48 1019.36 1019.16 1018.92 1019.07 1019.35 1019.36 1019.17 1019.50 1019.65 1019.53 1019.43 1019.52 1019.54 1019.40 1019.55 1019.58 1019.02 1018.28 1017.62 1016.85 1016.64 1016.56 1016.46 1016.03 1015.70 1015.64 1015.41 1015.22 1015.17
1019.86 1020.17 1020.39 1020.25 1020.12 1020.31 1020.41 1020.46 1020.25 1020.07 1020.03 1019.86 1019.66 1019.45 1019.09 1018.95 1018.84 1018.83 1019.00 1018.98 1018.99 1019.16 1019.28 1019.25 1019.22 1019.27 1019.34 1019.23 1019.38 1019.63 1019.30 1019.44 1018.83 1017.40 1016.86 1016.69 1016.46 1016.18 1015.96 1015.73 1015.32 1014.90 1014.93
1019.52 1019.72 1019.87 1019.74 1019.90 1019.93 1020.17 1020.28 1020.30 1020.18 1020.16 1019.81 1019.71 1019.45 1018.83 1018.48 1018.42 1018.40 1018.64 1018.72 1018.73 1018.84 1018.99 1018.88 1018.82 1018.82 1018.95 1019.22 1019.08 1019.01 1019.02 1019.10 1019.14 1018.30 1017.41 1016.84 1016.53 1016.33 1016.00 1015.74 1015.32 1014.95 1014.78
1019.28 1019.38 1019.62 1019.83 1020.10 1020.10 1020.22 1020.27 1020.29 1020.14 1020.07 1019.74 1019.51 1019.36 1018.85 1018.40 1018.40 1018.33 1018.23 1018.40 1018.49 1018.47 1018.60 1018.67 1018.53 1018.51 1018.58 1018.57 1018.87 1019.06 1018.86 1018.61 1018.61 1018.68 1017.72 1017.08 1016.53 1015.94 1015.78 1015.43 1015.17 1014.87 1014.51
1019.32 1019.49 1019.83 1020.01 1020.02 1019.99 1020.04 1019.94 1020.07 1020.06 1019.82 1019.67 1019.26 1019.03 1018.53 1018.26 1018.16 1017.92 1017.80 1017.87 1017.88 1017.86 1018.01 1018.02 1018.11 1017.98 1017.87 1018.13 1018.37 1018.40 1018.42 1018.35 1018.43 1018.34 1017.89 1016.98 1016.54 1015.76 1015.23 1014.75 1014.53 1014.38 1014.27
Wind_Speed
1 2 9 11 12 13 13 12 12 12 12 13 13 12 11 11 11 11 12 11 10 9 9 9 8 8 9 9 8 8 7 7 7 7 8 9 9 7 7 13 12 10 12
6 4 10 12 11 12 12 13 11 11 12 12 11 11 11 10 10 10 10 10 10 9 7 8 7 8 7 7 7 6 6 6 5 6 6 7 8 7 6 11 12 10 11
5 3 6 11 10 12 11 11 12 11 11 11 10 10 10 9 9 9 9 9 8 8 7 7 6 6 6 6 6 5 5 4 3 1 4 3 3 7 10 12 12 12 11
5 4 4 10 11 11 10 11 12 11 11 11 10 9 10 10 10 10 9 9 8 7 7 7 7 8 7 6 5 6 6 6 4 2 2 2 5 9 11 13 13 12 11
6 5 6 10 10 10 10 10 11 10 10 9 9 8 9 9 9 9 10 10 10 10 9 7 8 9 8 9 8 7 7 7 7 6 3 3 4 8 11 12 13 13 12
5 5 9 10 9 9 9 9 9 8 7 6 7 7 7 7 8 8 8 9 9 9 9 8 9 9 10 10 10 9 10 10 9 5 5 6 6 10 12 13 13 14 13
6 5 6 10 9 8 7 6 6 6 5 5 4 3 3 4 5 5 6 6 6 8 8 8 8 9 9 10 10 11 12 12 6 4 5 6 3 11 13 14 14 13 14
9 6 5 9 8 8 7 5 5 5 4 3 1 2 3 4 4 3 3 3 6 9 10 11 11 11 11 11 11 12 12 12 8 4 6 6 8 14 16 15 15 16 16
5 5 2 2 5 7 6 6 6 7 6 4 3 1 4 6 5 5 6 6 7 8 8 9 11 12 12 14 14 14 15 15 8 3 6 5 11 15 17 14 16 16 15
5 5 5 4 3 3 3 6 6 7 7 5 3 1 7 8 6 8 8 10 10 9 8 11 12 10 10 11 13 14 15 16 6 4 4 5 14 13 16 16 15 15 16
6 5 3 2 5 5 4 4 6 7 6 5 1 3 4 3 4 5 6 6 12 11 12 12 14 12 10 11 13 13 13 4 4 3 3 13 16 15 18 14 14 15 15
4 4 6 5 6 6 1 4 4 4 1 2 3 3 3 4 5 6 8 10 8 10 11 9 11 13 8 3 4 8 4 5 3 4 4 12 8 16 18 14 15 15 15
5 4 5 6 5 6 4 3 2 1 2 3 2 2 2 3 3 3 3 3 4 8 3 5 5 4 5 4 4 4 5 5 2 3 5 8 4 4 10 10 11 12 14
7 5 5 5 5 5 3 3 1 1 2 2 3 4 2 2 2 2 2 4 4 3 3 3 3 5 6 7 6 6 6 4 3 2 4 11 3 2 8 11 14 15 14
6 5 4 4 4 2 2 3 3 2 2 2 3 3 3 3 1 1 3 3 4 2 3 4 4 5 5 6 5 5 6 6 6 2 2 7 8 6 6 7 10 14 16
2 5 2 2 4 4 2 3 3 4 3 2 4 5 5 4 3 1 2 3 3 2 4 3 3 4 3 4 6 6 6 5 6 6 3 4 8 8 11 13 13 12 16
5 4 5 4 5 5 5 4 3 4 4 4 4 6 5 3 3 3 3 2 4 3 5 4 3 3 4 3 4 5 5 6 5 6 5 4 5 9 12 11 12 14 13
6 7 5 5 6 8 6 5 4 4 5 5 4 3 7 7 6 4 3 4 4 4 3 3 3 3 3 4 4 5 4 5 6 7 5 4 4 4 7 13 13 12 15
7 7 7 7 6 7 6 5 4 6 5 5 3 4 7 8 5 3 3 5 3 3 4 2 2 1 3 4 5 5 5 5 6 5 7 6 6 5 4 10 14 15 16
7 7 7 5 3 5 5 4 4 4 3 3 4 4 4 3 5 4 4 5 2 2 2 2 2 2 3 3 4 6 6 5 4 4 5 5 5 6 5 6 5 7 16
8 8 7 6 5 5 3 3 4 3 3 3 1 5 6 6 6 5 4 4 4 4 4 3 2 2 3 1 2 4 4 5 4 3 4 4 6 5 4 4 4 4 6
11 8 6 7 8 6 3 4 4 2 3 4 4 5 6 6 6 4 4 4 3 3 4 2 2 1 2 1 1 0 4 6 4 5 4 4 5 5 5 5 4 6 6
7 5 8 11 10 7 8 3 3 1 3 3 3 3 5 6 6 5 6 5 4 3 3 3 3 3 2 2 3 3 2 3 4 4 5 3 6 5 5 5 5 3 5
5 7 8 8 7 5 6 5 5 3 4 2 2 4 4 4 5 6 6 5 5 3 4 4 4 3 3 4 2 3 3 4 4 5 3 4 5 6 6 4 4 4 3
3 2 3 3 5 6 5 5 3 4 3 3 3 5 4 5 5 6 5 6 6 4 4 5 5 5 3 3 3 3 4 2 4 4 6 4 4 4 6 7 5 4 4
2 3 2 3 6 6 6 7 6 6 8 5 5 5 4 3 5 6 6 6 6 5 5 5 6 5 4 4 4 4 4 3 3 4 4 4 8 7 5 5 5 5 5
Wind_Direction
305 109 110 105 110 109 103 98 87 83 80 79 79 77 73 68 65 64 66 67 66 64 70 71 67 72 79 77 72 72 68 90 102 105 115 119 123 123 122 121 121 122 121
162 157 127 116 108 98 99 91 83 79 77 72 74 76 77 71 67 61 60 58 55 54 62 60 55 55 65 74 80 82 96 95 92 122 133 133 130 135 149 135 126 129 128
141 127 116 117 106 98 94 87 87 84 76 72 66 71 72 72 70 64 59 54 57 50 43 29 33 45 42 38 38 35 53 78 93 147 157 136 150 129 126 135 134 131 133
133 138 143 120 108 97 93 89 84 80 77 73 67 62 64 60 57 55 48 50 50 40 30 28 15 6 7 17 17 8 2 358 353 321 346 216 192 159 150 144 146 144 141
140 158 137 118 104 98 94 91 83 79 75 74 68 59 57 56 51 47 43 36 30 29 20 11 359 356 351 348 347 348 345 334 326 341 325 280 253 181 166 157 153 152 150
144 138 132 122 116 109 100 94 88 81 79 73 63 56 46 43 35 32 34 29 23 13 6 358 355 350 347 340 335 333 330 327 324 331 318 298 220 196 183 171 166 161 159
141 152 137 143 136 124 115 113 110 104 89 78 63 42 41 29 20 20 25 21 2 342 330 324 327 328 328 327 327 327 326 320 322 346 321 317 262 204 191 179 173 173 168
155 166 176 154 146 139 135 130 129 118 108 92 64 349 341 342 343 4 337 300 331 327 323 314 312 307 307 308 310 313 312 308 311 315 308 296 284 229 199 195 185 173 172
144 140 137 136 177 163 160 164 161 152 152 174 205 313 312 293 283 273 262 273 301 320 323 309 305 305 307 307 306 305 303 303 297 279 292 291 295 229 195 195 187 176 176
135 154 160 197 214 191 228 192 187 173 166 187 201 34 334 328 288 273 249 263 281 305 316 307 302 305 308 307 304 302 297 296 297 315 282 276 289 217 204 205 196 187 181
164 169 170 195 249 205 224 259 217 204 194 199 253 25 46 20 339 340 321 305 250 308 314 299 303 302 291 296 307 304 302 279 273 284 248 275 260 242 214 209 201 201 195
128 165 158 123 60 74 336 330 227 239 4 298 217 111 83 46 23 25 358 359 353 334 7 20 24 12 356 325 299 318 311 306 275 286 270 272 305 237 215 202 208 211 203
155 98 79 80 65 60 54 27 31 199 216 243 240 98 63 53 43 16 350 346 337 350 333 359 6 357 328 303 313 309 296 303 311 297 325 311 360 213 199 205 218 214 209
106 108 98 85 69 41 26 28 75 193 178 200 215 167 137 91 47 353 345 343 347 326 310 340 344 319 328 331 328 319 309 295 275 275 322 316 308 137 210 213 218 224 224
127 126 116 112 110 86 8 329 343 285 289 144 182 200 143 154 134 330 315 343 318 333 301 327 340 337 328 316 318 341 330 323 310 264 268 294 293 261 244 231 245 233 225
190 155 132 192 193 167 214 275 285 283 271 304 208 209 207 164 166 243 302 333 322 323 308 321 318 322 329 323 322 333 328 331 321 306 277 270 290 269 264 273 254 247 238
225 196 204 215 238 209 218 247 276 278 279 278 259 204 207 173 205 240 272 299 291 293 313 347 344 17 321 311 332 327 321 321 319 318 296 263 261 269 269 239 239 239 259
224 223 233 239 214 231 225 237 242 279 276 267 249 225 198 201 202 215 242 273 274 304 302 325 315 315 317 341 312 302 303 302 307 309 304 278 257 243 257 242 228 235 237
216 233 249 257 259 225 241 250 248 248 241 260 243 237 208 196 202 204 210 251 280 295 318 318 312 262 295 313 306 304 304 296 291 304 299 296 279 251 236 249 237 220 225
214 230 237 262 37 292 278 274 292 283 326 291 233 220 203 212 197 213 246 242 243 268 293 310 271 285 243 277 308 307 293 283 288 289 295 302 280 264 241 238 242 226 213
221 233 224 219 200 224 250 263 273 256 269 269 266 210 195 207 219 212 256 271 235 224 229 255 262 261 309 323 337 321 301 289 298 317 311 341 339 318 278 244 248 230 226
226 223 201 205 213 222 206 225 228 166 261 244 236 231 228 222 222 218 232 245 233 240 266 266 203 268 254 299 315 292 335 329 332 310 334 348 356 346 338 327 269 232 214
230 204 211 215 221 215 230 247 279 8 297 310 265 252 241 241 242 231 240 230 234 202 233 262 230 207 229 298 210 205 325 263 322 316 328 334 331 325 307 302 316 267 232
226 217 230 221 229 226 225 229 218 219 251 250 285 279 270 264 245 240 249 238 225 221 232 236 222 224 166 238 316 222 237 188 236 315 312 314 323 315 301 283 271 297 262
165 218 254 261 265 266 252 257 248 259 253 255 273 294 281 266 256 268 240 234 225 220 242 248 250 227 202 196 191 240 242 234 228 236 291 297 294 281 275 254 239 250 265
219 209 136 193 247 259 249 244 244 274 275 268 254 253 270 272 283 269 249 227 233 227 234 241 243 237 223 231 227 218 216 204 224 219 258 285 287 288 268 251 235 220 220